Back to catalog

OPS 0856 DEB

LostPO
NORAD 23838·DEBRIS·🇺🇸 United States

Launched Aug 19, 1966 from Vandenberg Space Force Base

Loading…

Next Passes (next 24 hours)

TLE

StaleSource: Space-Track

Epoch: Jun 14, 2009, 12:44 UTC

1 23838U 66077K   09165.53107625 +.00000007 +00000-0 +10000-3 0  9991
2 23838 087.7563 182.8860 1017861 082.4215 288.6825 08.84962651441626

Track OPS 0856 DEB in real time with AllMySat

Download on the App Store